Time,TemperatureF,DewpointF,PressureIn,WindDirection,WindDirectionDegrees,WindSpeedMPH,WindSpeedGustMPH,Humidity,HourlyPrecipIn,Conditions,Clouds,dailyrainin,SoftwareType,DateUTC
2013-03-13 00:01:00,41.6,29.9,29.92,NW,322,2.0,2.0,63,0.00,,,0.94,Wunderground v.1.15,2013-03-13 04:01:00,
2013-03-13 00:03:00,41.5,29.8,29.92,WNW,294,2.0,9.0,63,0.00,,,0.94,Wunderground v.1.15,2013-03-13 04:03:00,
2013-03-13 00:04:00,41.5,29.8,29.92,WNW,299,2.0,9.0,63,0.00,,,0.94,Wunderground v.1.15,2013-03-13 04:04:00,
2013-03-13 00:05:00,41.5,29.8,29.92,West,281,2.0,9.0,63,0.00,,,0.94,Wunderground v.1.15,2013-03-13 04:05:00,
2013-03-13 00:10:00,41.5,29.4,29.92,NW,322,2.0,2.0,62,0.00,,,0.94,Wunderground v.1.15,2013-03-13 04:10:00,
2013-03-13 00:15:00,41.5,29.4,29.92,WNW,289,3.0,9.0,62,0.00,,,0.94,Wunderground v.1.15,2013-03-13 04:15:00,
2013-03-13 00:20:00,41.3,29.3,29.92,NNW,332,2.0,2.0,62,0.00,,,0.94,Wunderground v.1.15,2013-03-13 04:20:00,
2013-03-13 00:25:00,41.3,29.3,29.92,North,354,2.0,9.0,62,0.00,,,0.94,Wunderground v.1.15,2013-03-13 04:25:00,
2013-03-13 00:30:00,41.3,29.3,29.93,NW,313,2.0,2.0,62,0.00,,,0.94,Wunderground v.1.15,2013-03-13 04:30:00,
2013-03-13 00:35:00,41.2,29.2,29.93,NNW,346,1.0,9.0,62,0.00,,,0.94,Wunderground v.1.15,2013-03-13 04:35:00,
2013-03-13 00:41:00,41.2,29.2,29.93,NW,319,1.0,9.0,62,0.00,,,0.94,Wunderground v.1.15,2013-03-13 04:41:00,
2013-03-13 00:46:00,41.1,28.7,29.92,NW,316,2.0,9.0,61,0.00,,,0.94,Wunderground v.1.15,2013-03-13 04:46:00,
2013-03-13 00:51:00,41.1,29.1,29.92,NNW,330,1.0,9.0,62,0.00,,,0.94,Wunderground v.1.15,2013-03-13 04:51:00,
2013-03-13 00:56:00,41.1,28.7,29.92,WNW,296,1.0,9.0,61,0.00,,,0.94,Wunderground v.1.15,2013-03-13 04:56:00,
2013-03-13 01:02:00,40.9,28.5,29.92,North,353,2.0,8.0,61,0.00,,,0.00,Wunderground v.1.15,2013-03-13 05:02:00,
2013-03-13 01:07:00,40.8,28.4,29.92,North,354,2.0,8.0,61,0.00,,,0.00,Wunderground v.1.15,2013-03-13 05:07:00,
2013-03-13 01:12:00,40.8,28.8,29.92,NNW,346,1.0,8.0,62,0.00,,,0.00,Wunderground v.1.15,2013-03-13 05:12:00,
2013-03-13 01:18:00,40.6,28.2,29.92,NW,312,1.0,8.0,61,0.00,,,0.00,Wunderground v.1.15,2013-03-13 05:18:00,
2013-03-13 01:24:00,40.6,28.2,29.92,NW,316,1.0,8.0,61,0.00,,,0.00,Wunderground v.1.15,2013-03-13 05:24:00,
2013-03-13 01:29:00,40.5,28.1,29.92,NW,313,0.0,8.0,61,0.00,,,0.00,Wunderground v.1.15,2013-03-13 05:29:00,
2013-03-13 01:35:00,40.3,27.9,29.92,NW,313,1.0,8.0,61,0.00,,,0.00,Wunderground v.1.15,2013-03-13 05:35:00,
2013-03-13 01:40:00,40.3,28.3,29.92,NW,312,1.0,8.0,62,0.00,,,0.00,Wunderground v.1.15,2013-03-13 05:40:00,
2013-03-13 01:45:00,40.2,27.8,29.92,North,353,1.0,8.0,61,0.00,,,0.00,Wunderground v.1.15,2013-03-13 05:45:00,
2013-03-13 01:51:00,40.2,27.8,29.92,WNW,296,1.0,8.0,61,0.00,,,0.00,Wunderground v.1.15,2013-03-13 05:51:00,
2013-03-13 01:57:00,40.1,27.7,29.92,WNW,296,1.0,8.0,61,0.00,,,0.00,Wunderground v.1.15,2013-03-13 05:57:00,
2013-03-13 02:02:00,40.1,27.7,29.92,NW,312,0.0,6.0,61,0.00,,,0.00,Wunderground v.1.15,2013-03-13 06:02:00,
2013-03-13 02:08:00,39.9,27.5,29.92,NNW,346,0.0,6.0,61,0.00,,,0.00,Wunderground v.1.15,2013-03-13 06:08:00,
2013-03-13 02:14:00,39.8,27.4,29.92,WNW,298,1.0,6.0,61,0.00,,,0.00,Wunderground v.1.15,2013-03-13 06:14:00,
2013-03-13 02:19:00,39.8,27.4,29.92,NNW,342,1.0,6.0,61,0.00,,,0.00,Wunderground v.1.15,2013-03-13 06:19:00,
2013-03-13 02:25:00,39.6,27.2,29.92,WNW,294,1.0,6.0,61,0.00,,,0.00,Wunderground v.1.15,2013-03-13 06:25:00,
2013-03-13 02:30:00,39.6,27.2,29.92,WNW,294,0.0,6.0,61,0.00,,,0.00,Wunderground v.1.15,2013-03-13 06:30:00,
2013-03-13 02:35:00,39.5,27.2,29.92,NW,316,0.0,6.0,61,0.00,,,0.00,Wunderground v.1.15,2013-03-13 06:35:00,
2013-03-13 02:40:00,39.5,27.5,29.92,NW,313,0.0,6.0,62,0.00,,,0.00,Wunderground v.1.15,2013-03-13 06:40:00,
2013-03-13 02:45:00,39.3,27.4,29.92,NW,312,0.0,6.0,62,0.00,,,0.00,Wunderground v.1.15,2013-03-13 06:45:00,
2013-03-13 02:50:00,39.2,27.3,29.92,NW,312,0.0,6.0,62,0.00,,,0.00,Wunderground v.1.15,2013-03-13 06:50:00,
2013-03-13 02:56:00,39.1,27.6,29.92,NW,312,0.0,6.0,63,0.00,,,0.00,Wunderground v.1.15,2013-03-13 06:56:00,
2013-03-13 03:02:00,38.9,27.4,29.92,NW,312,0.0,4.0,63,0.00,,,0.00,Wunderground v.1.15,2013-03-13 07:02:00,
2013-03-13 03:07:00,38.9,27.4,29.92,NNW,329,0.0,4.0,63,0.00,,,0.00,Wunderground v.1.15,2013-03-13 07:07:00,
2013-03-13 03:12:00,38.8,27.3,29.92,NNW,329,0.0,4.0,63,0.00,,,0.00,Wunderground v.1.15,2013-03-13 07:12:00,
2013-03-13 03:17:00,38.8,27.3,29.92,WNW,292,0.0,4.0,63,0.00,,,0.00,Wunderground v.1.15,2013-03-13 07:17:00,
2013-03-13 03:22:00,38.6,27.5,29.92,WNW,299,0.0,4.0,64,0.00,,,0.00,Wunderground v.1.15,2013-03-13 07:22:00,
2013-03-13 03:27:00,38.5,27.4,29.92,WNW,299,0.0,4.0,64,0.00,,,0.00,Wunderground v.1.15,2013-03-13 07:27:00,
2013-03-13 03:33:00,38.5,27.4,29.92,WNW,299,0.0,4.0,64,0.00,,,0.00,Wunderground v.1.15,2013-03-13 07:33:00,
2013-03-13 03:38:00,38.5,27.4,29.92,WNW,299,0.0,4.0,64,0.00,,,0.00,Wunderground v.1.15,2013-03-13 07:38:00,
2013-03-13 03:43:00,38.3,27.2,29.92,NW,304,0.0,4.0,64,0.00,,,0.00,Wunderground v.1.15,2013-03-13 07:43:00,
2013-03-13 03:49:00,38.3,27.2,29.92,NW,304,0.0,4.0,64,0.00,,,0.00,Wunderground v.1.15,2013-03-13 07:49:00,
2013-03-13 03:54:00,38.2,27.1,29.92,NW,304,0.0,4.0,64,0.00,,,0.00,Wunderground v.1.15,2013-03-13 07:54:00,
2013-03-13 03:59:00,38.2,27.1,29.91,NW,304,0.0,4.0,64,0.00,,,0.00,Wunderground v.1.15,2013-03-13 07:59:00,
2013-03-13 04:05:00,38.0,26.9,29.91,NW,304,0.0,4.0,64,0.00,,,0.00,Wunderground v.1.15,2013-03-13 08:05:00,
2013-03-13 04:11:00,37.9,27.2,29.91,NW,304,0.0,4.0,65,0.00,,,0.00,Wunderground v.1.15,2013-03-13 08:11:00,
2013-03-13 04:17:00,37.8,27.1,29.91,NW,304,0.0,4.0,65,0.00,,,0.00,Wunderground v.1.15,2013-03-13 08:17:00,
2013-03-13 04:23:00,37.6,26.9,29.91,NW,304,0.0,4.0,65,0.00,,,0.00,Wunderground v.1.15,2013-03-13 08:23:00,
2013-03-13 04:28:00,37.3,26.6,29.91,NW,304,0.0,4.0,65,0.00,,,0.00,Wunderground v.1.15,2013-03-13 08:28:00,
2013-03-13 04:33:00,37.2,26.5,29.91,NW,304,0.0,4.0,65,0.00,,,0.00,Wunderground v.1.15,2013-03-13 08:33:00,
2013-03-13 04:39:00,36.9,26.6,29.91,NW,304,0.0,4.0,66,0.00,,,0.00,Wunderground v.1.15,2013-03-13 08:39:00,
2013-03-13 04:44:00,36.8,26.5,29.91,NW,304,0.0,0.0,66,0.00,,,0.00,Wunderground v.1.15,2013-03-13 08:44:00,
2013-03-13 04:49:00,36.6,26.7,29.91,NW,304,0.0,0.0,67,0.00,,,0.00,Wunderground v.1.15,2013-03-13 08:49:00,
2013-03-13 04:55:00,36.3,26.7,29.91,NW,304,0.0,0.0,68,0.00,,,0.00,Wunderground v.1.15,2013-03-13 08:55:00,
2013-03-13 05:01:00,36.2,27.0,29.91,NW,304,0.0,0.0,69,0.00,,,0.00,Wunderground v.1.15,2013-03-13 09:01:00,
2013-03-13 05:06:00,35.9,26.7,29.91,NW,304,0.0,0.0,69,0.00,,,0.00,Wunderground v.1.15,2013-03-13 09:06:00,
2013-03-13 05:11:00,35.8,26.6,29.91,NW,304,0.0,0.0,69,0.00,,,0.00,Wunderground v.1.15,2013-03-13 09:11:00,
2013-03-13 05:16:00,35.6,26.8,29.92,NW,304,0.0,0.0,70,0.00,,,0.00,Wunderground v.1.15,2013-03-13 09:16:00,
2013-03-13 05:22:00,35.5,26.7,29.92,NW,304,0.0,0.0,70,0.00,,,0.00,Wunderground v.1.15,2013-03-13 09:22:00,
2013-03-13 05:28:00,35.2,26.7,29.92,NW,304,0.0,0.0,71,0.00,,,0.00,Wunderground v.1.15,2013-03-13 09:28:00,
2013-03-13 05:34:00,35.0,26.5,29.92,NW,304,0.0,0.0,71,0.00,,,0.00,Wunderground v.1.15,2013-03-13 09:34:00,
2013-03-13 05:39:00,34.9,26.4,29.92,NW,304,0.0,0.0,71,0.00,,,0.00,Wunderground v.1.15,2013-03-13 09:39:00,
2013-03-13 05:44:00,34.6,26.5,29.91,NW,304,0.0,0.0,72,0.00,,,0.00,Wunderground v.1.15,2013-03-13 09:44:00,
2013-03-13 05:49:00,34.4,26.3,29.91,NW,304,0.0,0.0,72,0.00,,,0.00,Wunderground v.1.15,2013-03-13 09:49:00,
2013-03-13 05:55:00,34.3,26.5,29.91,NW,304,0.0,0.0,73,0.00,,,0.00,Wunderground v.1.15,2013-03-13 09:55:00,
2013-03-13 06:00:00,34.1,26.7,29.92,NW,304,0.0,0.0,74,0.00,,,0.00,Wunderground v.1.15,2013-03-13 10:00:00,
2013-03-13 06:05:00,33.8,26.4,29.92,NW,304,0.0,0.0,74,0.00,,,0.00,Wunderground v.1.15,2013-03-13 10:05:00,
2013-03-13 06:10:00,33.7,26.6,29.92,NW,304,0.0,0.0,75,0.00,,,0.00,Wunderground v.1.15,2013-03-13 10:10:00,
2013-03-13 06:16:00,33.5,26.4,29.92,NW,304,0.0,0.0,75,0.00,,,0.00,Wunderground v.1.15,2013-03-13 10:16:00,
2013-03-13 06:22:00,33.2,26.5,29.92,NW,304,0.0,0.0,76,0.00,,,0.00,Wunderground v.1.15,2013-03-13 10:22:00,
2013-03-13 06:27:00,33.1,26.4,29.92,NW,304,0.0,0.0,76,0.00,,,0.00,Wunderground v.1.15,2013-03-13 10:27:00,
2013-03-13 06:32:00,32.9,26.5,29.92,NW,304,0.0,0.0,77,0.00,,,0.00,Wunderground v.1.15,2013-03-13 10:32:00,
2013-03-13 06:37:00,32.8,26.4,29.92,NW,304,0.0,0.0,77,0.00,,,0.00,Wunderground v.1.15,2013-03-13 10:37:00,
2013-03-13 06:43:00,32.5,26.1,29.92,NW,304,0.0,0.0,77,0.00,,,0.00,Wunderground v.1.15,2013-03-13 10:43:00,
2013-03-13 06:49:00,32.4,26.3,29.93,NW,304,0.0,0.0,78,0.00,,,0.00,Wunderground v.1.15,2013-03-13 10:49:00,
2013-03-13 06:54:00,32.2,26.1,29.93,NW,304,0.0,0.0,78,0.00,,,0.00,Wunderground v.1.15,2013-03-13 10:54:00,
2013-03-13 06:59:00,32.1,26.0,29.93,NW,304,0.0,0.0,78,0.00,,,0.00,Wunderground v.1.15,2013-03-13 10:59:00,
2013-03-13 07:04:00,32.1,26.0,29.93,NW,304,0.0,0.0,78,0.00,,,0.00,Wunderground v.1.15,2013-03-13 11:04:00,
2013-03-13 07:09:00,31.9,25.8,29.93,NW,304,0.0,0.0,78,0.00,,,0.00,Wunderground v.1.15,2013-03-13 11:09:00,
2013-03-13 07:15:00,31.8,26.0,29.93,NW,304,0.0,0.0,79,0.00,,,0.00,Wunderground v.1.15,2013-03-13 11:15:00,
2013-03-13 07:20:00,31.8,26.0,29.93,NW,304,0.0,0.0,79,0.00,,,0.00,Wunderground v.1.15,2013-03-13 11:20:00,
2013-03-13 07:25:00,31.6,25.8,29.93,NW,304,0.0,0.0,79,0.00,,,0.00,Wunderground v.1.15,2013-03-13 11:25:00,
2013-03-13 07:33:00,31.5,26.0,29.93,NW,304,0.0,0.0,80,0.00,,,0.00,Wunderground v.1.15,2013-03-13 11:33:00,
2013-03-13 07:38:00,31.5,26.0,29.93,NW,304,0.0,0.0,80,0.00,,,0.00,Wunderground v.1.15,2013-03-13 11:38:00,
2013-03-13 07:43:00,31.3,25.8,29.93,NW,304,0.0,0.0,80,0.00,,,0.00,Wunderground v.1.15,2013-03-13 11:43:00,
2013-03-13 07:48:00,31.3,26.1,29.93,NW,304,0.0,0.0,81,0.00,,,0.00,Wunderground v.1.15,2013-03-13 11:48:00,
2013-03-13 07:53:00,31.2,26.0,29.93,NW,304,0.0,0.0,81,0.00,,,0.00,Wunderground v.1.15,2013-03-13 11:53:00,
2013-03-13 07:58:00,31.2,26.3,29.93,NW,304,0.0,0.0,82,0.00,,,0.00,Wunderground v.1.15,2013-03-13 11:58:00,
2013-03-13 08:04:00,31.2,26.6,29.94,NW,304,0.0,0.0,83,0.00,,,0.00,Wunderground v.1.15,2013-03-13 12:04:00,
2013-03-13 08:09:00,31.3,26.7,29.94,NW,304,0.0,0.0,83,0.00,,,0.00,Wunderground v.1.15,2013-03-13 12:09:00,
2013-03-13 08:14:00,31.3,27.0,29.94,NW,304,0.0,0.0,84,0.00,,,0.00,Wunderground v.1.15,2013-03-13 12:14:00,
2013-03-13 08:19:00,31.5,27.2,29.94,NW,304,0.0,0.0,84,0.00,,,0.00,Wunderground v.1.15,2013-03-13 12:19:00,
2013-03-13 08:24:00,31.8,28.1,29.94,NW,304,0.0,0.0,86,0.00,,,0.00,Wunderground v.1.15,2013-03-13 12:24:00,
2013-03-13 08:29:00,32.1,28.4,29.94,NW,304,0.0,0.0,86,0.00,,,0.00,Wunderground v.1.15,2013-03-13 12:29:00,
2013-03-13 08:35:00,32.5,29.1,29.94,NW,304,0.0,0.0,87,0.00,,,0.00,Wunderground v.1.15,2013-03-13 12:35:00,
2013-03-13 08:40:00,32.8,29.4,29.94,NW,304,0.0,0.0,87,0.00,,,0.00,Wunderground v.1.15,2013-03-13 12:40:00,
2013-03-13 08:45:00,33.1,29.7,29.94,NW,304,0.0,0.0,87,0.00,,,0.00,Wunderground v.1.15,2013-03-13 12:45:00,
2013-03-13 08:50:00,33.4,30.2,29.94,NW,304,0.0,0.0,88,0.00,,,0.00,Wunderground v.1.15,2013-03-13 12:50:00,
2013-03-13 08:55:00,33.5,30.3,29.94,NW,304,0.0,0.0,88,0.00,,,0.00,Wunderground v.1.15,2013-03-13 12:55:00,
2013-03-13 09:00:00,33.8,30.3,29.94,NW,304,0.0,0.0,87,0.00,,,0.00,Wunderground v.1.15,2013-03-13 13:00:00,
2013-03-13 09:06:00,34.1,30.6,29.94,South,182,0.0,0.0,87,0.00,,,0.00,Wunderground v.1.15,2013-03-13 13:06:00,
2013-03-13 09:11:00,34.6,31.1,29.94,SW,216,0.0,0.0,87,0.00,,,0.00,Wunderground v.1.15,2013-03-13 13:11:00,
2013-03-13 09:16:00,35.0,31.5,29.94,SW,216,0.0,0.0,87,0.00,,,0.00,Wunderground v.1.15,2013-03-13 13:16:00,
2013-03-13 09:21:00,35.5,31.7,29.94,SW,216,0.0,0.0,86,0.00,,,0.00,Wunderground v.1.15,2013-03-13 13:21:00,
2013-03-13 09:26:00,35.9,31.8,29.94,SW,216,0.0,0.0,85,0.00,,,0.00,Wunderground v.1.15,2013-03-13 13:26:00,
2013-03-13 09:32:00,36.3,31.6,29.94,WSW,258,0.0,2.0,83,0.00,,,0.00,Wunderground v.1.15,2013-03-13 13:32:00,
2013-03-13 09:37:00,36.8,32.1,29.94,SSW,199,0.0,2.0,83,0.00,,,0.00,Wunderground v.1.15,2013-03-13 13:37:00,
2013-03-13 09:42:00,37.2,31.6,29.94,SW,215,0.0,2.0,80,0.00,,,0.00,Wunderground v.1.15,2013-03-13 13:42:00,
2013-03-13 09:48:00,37.8,31.2,29.94,SSW,206,0.0,2.0,77,0.00,,,0.00,Wunderground v.1.15,2013-03-13 13:48:00,
2013-03-13 09:54:00,38.3,31.1,29.94,WSW,251,0.0,1.0,75,0.00,,,0.00,Wunderground v.1.15,2013-03-13 13:54:00,
2013-03-13 09:59:00,38.8,30.9,29.94,SSW,196,1.0,6.0,73,0.00,,,0.00,Wunderground v.1.15,2013-03-13 13:59:00,
2013-03-13 10:05:00,39.5,30.2,29.94,SSW,198,1.0,6.0,69,0.00,,,0.00,Wunderground v.1.15,2013-03-13 14:05:00,
2013-03-13 10:10:00,39.9,29.8,29.94,SSW,199,1.0,1.0,67,0.00,,,0.00,Wunderground v.1.15,2013-03-13 14:10:00,
2013-03-13 10:16:00,40.8,30.3,29.94,SSW,202,1.0,6.0,66,0.00,,,0.00,Wunderground v.1.15,2013-03-13 14:16:00,
2013-03-13 10:21:00,43.1,27.6,29.94,SW,226,1.0,6.0,54,0.00,,,0.00,Wunderground v.1.15,2013-03-13 14:21:00,
2013-03-13 10:26:00,44.9,28.8,29.94,South,176,2.0,6.0,53,0.00,,,0.00,Wunderground v.1.15,2013-03-13 14:26:00,
2013-03-13 10:32:00,44.9,29.7,29.92,SSE,151,2.0,6.0,55,0.00,,,0.00,Wunderground v.1.15,2013-03-13 14:32:00,
2013-03-13 10:37:00,45.4,30.2,29.92,SW,232,1.0,6.0,55,0.00,,,0.00,Wunderground v.1.15,2013-03-13 14:37:00,
2013-03-13 10:42:00,44.9,27.8,29.92,WSW,247,1.0,6.0,51,0.00,,,0.00,Wunderground v.1.15,2013-03-13 14:42:00,
2013-03-13 10:47:00,45.1,28.5,29.92,WNW,295,1.0,7.0,52,0.00,,,0.00,Wunderground v.1.15,2013-03-13 14:47:00,
2013-03-13 10:52:00,46.0,28.4,29.92,SSW,192,2.0,6.0,50,0.00,,,0.00,Wunderground v.1.15,2013-03-13 14:52:00,
2013-03-13 10:58:00,45.5,27.4,29.92,SSE,164,2.0,6.0,49,0.00,,,0.00,Wunderground v.1.15,2013-03-13 14:58:00,
2013-03-13 11:04:00,45.7,29.5,29.92,SSE,158,1.0,8.0,53,0.00,,,0.00,Wunderground v.1.15,2013-03-13 15:04:00,
2013-03-13 11:09:00,46.5,28.3,29.92,NW,306,1.0,8.0,49,0.00,,,0.00,Wunderground v.1.15,2013-03-13 15:09:00,
2013-03-13 11:15:00,47.1,28.4,29.91,SSE,162,1.0,8.0,48,0.00,,,0.00,Wunderground v.1.15,2013-03-13 15:15:00,
2013-03-13 11:21:00,47.7,28.9,29.91,South,189,2.0,8.0,48,0.00,,,0.00,Wunderground v.1.15,2013-03-13 15:21:00,
2013-03-13 11:26:00,46.8,28.1,29.91,SE,137,2.0,8.0,48,0.00,,,0.00,Wunderground v.1.15,2013-03-13 15:26:00,
2013-03-13 11:31:00,47.1,29.9,29.91,West,274,2.0,4.0,51,0.00,,,0.00,Wunderground v.1.15,2013-03-13 15:31:00,
2013-03-13 11:36:00,47.6,28.9,29.91,SE,145,1.0,8.0,48,0.00,,,0.00,Wunderground v.1.15,2013-03-13 15:36:00,
2013-03-13 11:41:00,47.3,28.6,29.91,SSW,192,2.0,8.0,48,0.00,,,0.00,Wunderground v.1.15,2013-03-13 15:41:00,
2013-03-13 11:47:00,46.8,28.1,29.90,South,186,2.0,9.0,48,0.00,,,0.00,Wunderground v.1.15,2013-03-13 15:47:00,
2013-03-13 11:52:00,47.0,28.8,29.90,WNW,301,2.0,9.0,49,0.00,,,0.00,Wunderground v.1.15,2013-03-13 15:52:00,
2013-03-13 11:57:00,46.8,28.1,29.90,SSW,200,2.0,9.0,48,0.00,,,0.00,Wunderground v.1.15,2013-03-13 15:57:00,
2013-03-13 12:03:00,46.7,28.0,29.90,WNW,285,1.0,9.0,48,0.00,,,0.00,Wunderground v.1.15,2013-03-13 16:03:00,
2013-03-13 12:08:00,47.9,29.6,29.90,West,268,2.0,9.0,49,0.00,,,0.00,Wunderground v.1.15,2013-03-13 16:08:00,
2013-03-13 12:14:00,48.2,28.4,29.90,WNW,285,1.0,9.0,46,0.00,,,0.00,Wunderground v.1.15,2013-03-13 16:14:00,
2013-03-13 12:20:00,49.4,25.4,29.90,WNW,289,2.0,9.0,39,0.00,,,0.00,Wunderground v.1.15,2013-03-13 16:20:00,
2013-03-13 12:25:00,49.2,26.5,29.90,WNW,299,3.0,9.0,41,0.00,,,0.00,Wunderground v.1.15,2013-03-13 16:25:00,
2013-03-13 12:30:00,48.6,27.1,29.89,WSW,237,4.0,4.0,43,0.00,,,0.00,Wunderground v.1.15,2013-03-13 16:30:00,
2013-03-13 12:36:00,48.9,25.6,29.89,NW,325,5.0,9.0,40,0.00,,,0.00,Wunderground v.1.15,2013-03-13 16:36:00,
2013-03-13 12:41:00,48.5,26.4,29.89,West,271,5.0,10.0,42,0.00,,,0.00,Wunderground v.1.15,2013-03-13 16:41:00,
2013-03-13 12:47:00,47.9,27.6,29.89,NW,325,5.0,10.0,45,0.00,,,0.00,Wunderground v.1.15,2013-03-13 16:47:00,
2013-03-13 12:53:00,48.9,27.4,29.89,West,263,5.0,9.0,43,0.00,,,0.00,Wunderground v.1.15,2013-03-13 16:53:00,
2013-03-13 12:59:00,48.8,25.5,29.89,West,278,5.0,9.0,40,0.00,,,0.00,Wunderground v.1.15,2013-03-13 16:59:00,
2013-03-13 13:04:00,48.3,27.4,29.89,WSW,257,4.0,13.0,44,0.00,,,0.00,Wunderground v.1.15,2013-03-13 17:04:00,
2013-03-13 13:10:00,47.9,25.9,29.89,WSW,251,3.0,4.0,42,0.00,,,0.00,Wunderground v.1.15,2013-03-13 17:10:00,
2013-03-13 13:15:00,47.6,25.6,29.88,West,271,3.0,13.0,42,0.00,,,0.00,Wunderground v.1.15,2013-03-13 17:15:00,
2013-03-13 13:20:00,47.6,27.3,29.88,NW,325,6.0,13.0,45,0.00,,,0.00,Wunderground v.1.15,2013-03-13 17:20:00,
2013-03-13 13:25:00,48.0,28.7,29.88,NNW,333,6.0,13.0,47,0.00,,,0.00,Wunderground v.1.15,2013-03-13 17:25:00,
2013-03-13 13:30:00,47.9,28.1,29.89,West,275,6.0,13.0,46,0.00,,,0.00,Wunderground v.1.15,2013-03-13 17:30:00,
2013-03-13 13:36:00,47.4,27.6,29.89,NW,311,7.0,13.0,46,0.00,,,0.00,Wunderground v.1.15,2013-03-13 17:36:00,
2013-03-13 13:41:00,47.6,27.8,29.89,North,349,7.0,13.0,46,0.00,,,0.00,Wunderground v.1.15,2013-03-13 17:41:00,
2013-03-13 13:46:00,47.9,27.0,29.88,NW,305,7.0,16.0,44,0.00,,,0.00,Wunderground v.1.15,2013-03-13 17:46:00,
2013-03-13 13:52:00,48.0,26.5,29.88,West,261,8.0,16.0,43,0.00,,,0.00,Wunderground v.1.15,2013-03-13 17:52:00,
2013-03-13 13:57:00,47.9,27.0,29.88,North,349,7.0,13.0,44,0.00,,,0.00,Wunderground v.1.15,2013-03-13 17:57:00,
2013-03-13 14:03:00,47.9,27.0,29.88,NNW,336,7.0,18.0,44,0.00,,,0.00,Wunderground v.1.15,2013-03-13 18:03:00,
2013-03-13 14:08:00,47.6,29.4,29.88,NW,304,6.0,18.0,49,0.00,,,0.00,Wunderground v.1.15,2013-03-13 18:08:00,
2013-03-13 14:14:00,47.7,28.9,29.88,West,267,4.0,18.0,48,0.00,,,0.00,Wunderground v.1.15,2013-03-13 18:14:00,
2013-03-13 14:19:00,48.0,27.1,29.88,NW,318,5.0,18.0,44,0.00,,,0.00,Wunderground v.1.15,2013-03-13 18:19:00,
2013-03-13 14:25:00,48.8,27.3,29.88,West,265,6.0,18.0,43,0.00,,,0.00,Wunderground v.1.15,2013-03-13 18:25:00,
2013-03-13 14:31:00,49.4,23.5,29.87,WNW,289,7.0,18.0,36,0.00,,,0.00,Wunderground v.1.15,2013-03-13 18:31:00,
2013-03-13 14:36:00,49.6,23.0,29.87,West,281,6.0,18.0,35,0.00,,,0.00,Wunderground v.1.15,2013-03-13 18:36:00,
2013-03-13 14:42:00,49.8,23.9,29.87,WNW,296,5.0,15.0,36,0.00,,,0.00,Wunderground v.1.15,2013-03-13 18:42:00,
2013-03-13 14:47:00,49.8,20.3,29.86,WNW,296,5.0,15.0,31,0.00,,,0.00,Wunderground v.1.15,2013-03-13 18:47:00,
2013-03-13 14:53:00,49.8,21.8,29.86,NW,306,5.0,15.0,33,0.00,,,0.00,Wunderground v.1.15,2013-03-13 18:53:00,
2013-03-13 14:59:00,49.6,20.2,29.86,NW,304,6.0,15.0,31,0.00,,,0.00,Wunderground v.1.15,2013-03-13 18:59:00,
2013-03-13 15:05:00,49.2,16.6,29.86,WNW,288,7.0,15.0,27,0.00,,,0.00,Wunderground v.1.15,2013-03-13 19:05:00,
2013-03-13 15:10:00,48.9,17.2,29.86,WNW,299,7.0,7.0,28,0.00,,,0.00,Wunderground v.1.15,2013-03-13 19:10:00,
2013-03-13 15:16:00,49.1,19.7,29.86,NW,309,6.0,15.0,31,0.00,,,0.00,Wunderground v.1.15,2013-03-13 19:16:00,
2013-03-13 15:21:00,49.4,20.7,29.86,NNW,329,4.0,8.0,32,0.00,,,0.00,Wunderground v.1.15,2013-03-13 19:21:00,
2013-03-13 15:26:00,49.9,18.9,29.86,West,275,4.0,15.0,29,0.00,,,0.00,Wunderground v.1.15,2013-03-13 19:26:00,
2013-03-13 15:31:00,49.6,20.2,29.86,NNW,333,8.0,15.0,31,0.00,,,0.00,Wunderground v.1.15,2013-03-13 19:31:00,
2013-03-13 15:37:00,49.9,19.7,29.86,NW,323,8.0,16.0,30,0.00,,,0.00,Wunderground v.1.15,2013-03-13 19:37:00,
2013-03-13 15:42:00,49.4,19.2,29.86,NW,309,6.0,15.0,30,0.00,,,0.00,Wunderground v.1.15,2013-03-13 19:42:00,
2013-03-13 15:47:00,48.9,18.0,29.86,NNW,347,6.0,15.0,29,0.00,,,0.00,Wunderground v.1.15,2013-03-13 19:47:00,
2013-03-13 15:52:00,48.8,18.7,29.86,NW,319,6.0,15.0,30,0.00,,,0.00,Wunderground v.1.15,2013-03-13 19:52:00,
2013-03-13 15:58:00,48.9,18.8,29.86,NNW,329,5.0,15.0,30,0.00,,,0.00,Wunderground v.1.15,2013-03-13 19:58:00,
2013-03-13 16:03:00,49.1,18.2,29.86,WNW,295,5.0,23.0,29,0.00,,,0.00,Wunderground v.1.15,2013-03-13 20:03:00,
2013-03-13 16:08:00,49.2,19.0,29.86,WSW,253,6.0,23.0,30,0.00,,,0.00,Wunderground v.1.15,2013-03-13 20:08:00,
2013-03-13 16:14:00,49.2,19.0,29.86,West,272,5.0,23.0,30,0.00,,,0.00,Wunderground v.1.15,2013-03-13 20:14:00,
2013-03-13 16:20:00,49.2,17.4,29.86,WNW,302,4.0,23.0,28,0.00,,,0.00,Wunderground v.1.15,2013-03-13 20:20:00,
2013-03-13 16:25:00,49.2,19.0,29.86,WNW,287,4.0,23.0,30,0.00,,,0.00,Wunderground v.1.15,2013-03-13 20:25:00,
2013-03-13 16:31:00,49.1,19.7,29.87,West,277,4.0,23.0,31,0.00,,,0.00,Wunderground v.1.15,2013-03-13 20:31:00,
2013-03-13 16:36:00,48.9,19.5,29.87,WNW,287,6.0,23.0,31,0.00,,,0.00,Wunderground v.1.15,2013-03-13 20:36:00,
2013-03-13 16:41:00,49.2,19.0,29.87,West,261,7.0,9.0,30,0.00,,,0.00,Wunderground v.1.15,2013-03-13 20:41:00,
2013-03-13 16:46:00,49.2,19.0,29.87,West,261,5.0,23.0,30,0.00,,,0.00,Wunderground v.1.15,2013-03-13 20:46:00,
2013-03-13 16:51:00,49.1,19.0,29.87,NW,305,7.0,23.0,30,0.00,,,0.00,Wunderground v.1.15,2013-03-13 20:51:00,
2013-03-13 16:57:00,48.9,18.0,29.87,WNW,295,7.0,23.0,29,0.00,,,0.00,Wunderground v.1.15,2013-03-13 20:57:00,
2013-03-13 17:02:00,48.9,18.8,29.87,WSW,243,7.0,15.0,30,0.00,,,0.00,Wunderground v.1.15,2013-03-13 21:02:00,
2013-03-13 17:08:00,48.8,17.9,29.87,WNW,299,7.0,15.0,29,0.00,,,0.00,Wunderground v.1.15,2013-03-13 21:08:00,
2013-03-13 17:13:00,48.6,17.7,29.87,North,0,5.0,15.0,29,0.00,,,0.00,Wunderground v.1.15,2013-03-13 21:13:00,
2013-03-13 17:18:00,48.5,19.9,29.88,WNW,288,4.0,15.0,32,0.00,,,0.00,Wunderground v.1.15,2013-03-13 21:18:00,
2013-03-13 17:23:00,48.2,21.8,29.88,North,350,6.0,15.0,35,0.00,,,0.00,Wunderground v.1.15,2013-03-13 21:23:00,
2013-03-13 17:29:00,47.4,22.4,29.89,WNW,301,6.0,15.0,37,0.00,,,0.00,Wunderground v.1.15,2013-03-13 21:29:00,
2013-03-13 17:35:00,47.1,23.4,29.89,WNW,296,4.0,15.0,39,0.00,,,0.00,Wunderground v.1.15,2013-03-13 21:35:00,
2013-03-13 17:40:00,47.0,23.3,29.89,North,0,6.0,6.0,39,0.00,,,0.00,Wunderground v.1.15,2013-03-13 21:40:00,
2013-03-13 17:45:00,46.7,24.8,29.90,NW,311,8.0,15.0,42,0.00,,,0.00,Wunderground v.1.15,2013-03-13 21:45:00,
2013-03-13 17:51:00,46.5,23.4,29.90,WNW,288,6.0,10.0,40,0.00,,,0.00,Wunderground v.1.15,2013-03-13 21:51:00,
2013-03-13 17:56:00,46.0,23.0,29.90,West,274,9.0,16.0,40,0.00,,,0.00,Wunderground v.1.15,2013-03-13 21:56:00,
2013-03-13 18:02:00,45.5,23.1,29.90,WSW,246,9.0,21.0,41,0.00,,,0.00,Wunderground v.1.15,2013-03-13 22:02:00,
2013-03-13 18:07:00,45.2,24.0,29.90,West,281,7.0,21.0,43,0.00,,,0.00,Wunderground v.1.15,2013-03-13 22:07:00,
2013-03-13 18:13:00,45.2,23.4,29.90,NW,318,7.0,21.0,42,0.00,,,0.00,Wunderground v.1.15,2013-03-13 22:13:00,
2013-03-13 18:18:00,45.1,23.9,29.90,North,349,7.0,21.0,43,0.00,,,0.00,Wunderground v.1.15,2013-03-13 22:18:00,
2013-03-13 18:24:00,45.1,23.3,29.90,North,357,7.0,21.0,42,0.00,,,0.00,Wunderground v.1.15,2013-03-13 22:24:00,
2013-03-13 18:29:00,44.9,23.2,29.91,WNW,298,5.0,21.0,42,0.00,,,0.00,Wunderground v.1.15,2013-03-13 22:29:00,
2013-03-13 18:34:00,44.8,23.6,29.91,West,271,4.0,21.0,43,0.00,,,0.00,Wunderground v.1.15,2013-03-13 22:34:00,
2013-03-13 18:39:00,44.6,25.1,29.91,NNW,336,7.0,21.0,46,0.00,,,0.00,Wunderground v.1.15,2013-03-13 22:39:00,
2013-03-13 18:45:00,44.2,26.2,29.93,North,350,8.0,21.0,49,0.00,,,0.00,Wunderground v.1.15,2013-03-13 22:45:00,
2013-03-13 18:50:00,43.6,26.6,29.93,NNW,333,7.0,21.0,51,0.00,,,0.00,Wunderground v.1.15,2013-03-13 22:50:00,
2013-03-13 18:55:00,43.1,26.7,29.93,NNW,330,6.0,21.0,52,0.00,,,0.00,Wunderground v.1.15,2013-03-13 22:55:00,
2013-03-13 19:00:00,42.6,26.2,29.94,North,349,5.0,5.0,52,0.00,,,0.00,Wunderground v.1.15,2013-03-13 23:00:00,
2013-03-13 19:06:00,42.2,25.8,29.94,NW,304,5.0,18.0,52,0.00,,,0.00,Wunderground v.1.15,2013-03-13 23:06:00,
2013-03-13 19:11:00,41.8,25.9,29.94,WNW,294,5.0,18.0,53,0.00,,,0.00,Wunderground v.1.15,2013-03-13 23:11:00,
2013-03-13 19:16:00,41.5,25.6,29.94,WNW,296,3.0,18.0,53,0.00,,,0.00,Wunderground v.1.15,2013-03-13 23:16:00,
2013-03-13 19:22:00,41.2,25.3,29.94,NW,318,3.0,18.0,53,0.00,,,0.00,Wunderground v.1.15,2013-03-13 23:22:00,
2013-03-13 19:27:00,40.8,25.0,29.94,NW,305,5.0,18.0,53,0.00,,,0.00,Wunderground v.1.15,2013-03-13 23:27:00,
2013-03-13 19:32:00,40.5,24.2,29.95,West,260,7.0,18.0,52,0.00,,,0.00,Wunderground v.1.15,2013-03-13 23:32:00,
2013-03-13 19:38:00,40.3,24.5,29.95,WSW,251,7.0,18.0,53,0.00,,,0.00,Wunderground v.1.15,2013-03-13 23:38:00,
2013-03-13 19:43:00,40.2,24.0,29.95,WNW,298,6.0,18.0,52,0.00,,,0.00,Wunderground v.1.15,2013-03-13 23:43:00,
2013-03-13 19:48:00,40.1,23.9,29.96,WNW,288,6.0,18.0,52,0.00,,,0.00,Wunderground v.1.15,2013-03-13 23:48:00,
2013-03-13 19:54:00,39.9,23.7,29.96,WNW,289,5.0,18.0,52,0.00,,,0.00,Wunderground v.1.15,2013-03-13 23:54:00,
2013-03-13 19:59:00,39.8,24.0,29.97,NNW,330,5.0,18.0,53,0.00,,,0.00,Wunderground v.1.15,2013-03-13 23:59:00,
2013-03-13 20:04:00,39.8,24.0,29.97,West,272,6.0,17.0,53,0.00,,,0.00,Wunderground v.1.15,2013-03-14 00:04:00,
2013-03-13 20:09:00,39.6,23.9,29.97,NW,304,7.0,17.0,53,0.00,,,0.00,Wunderground v.1.15,2013-03-14 00:09:00,
2013-03-13 20:15:00,39.5,23.8,29.97,WNW,287,8.0,17.0,53,0.00,,,0.00,Wunderground v.1.15,2013-03-14 00:15:00,
2013-03-13 20:20:00,39.3,23.6,29.97,NW,304,7.0,17.0,53,0.00,,,0.00,Wunderground v.1.15,2013-03-14 00:20:00,
2013-03-13 20:25:00,39.3,24.0,29.97,NW,308,6.0,17.0,54,0.00,,,0.00,Wunderground v.1.15,2013-03-14 00:25:00,
2013-03-13 20:30:00,39.2,23.9,29.98,West,275,5.0,5.0,54,0.00,,,0.00,Wunderground v.1.15,2013-03-14 00:30:00,
2013-03-13 20:35:00,39.1,23.4,29.98,NW,309,5.0,17.0,53,0.00,,,0.00,Wunderground v.1.15,2013-03-14 00:35:00,
2013-03-13 20:40:00,38.9,23.2,29.98,NNW,339,5.0,17.0,53,0.00,,,0.00,Wunderground v.1.15,2013-03-14 00:40:00,
2013-03-13 20:46:00,38.8,23.1,29.98,WNW,295,5.0,17.0,53,0.00,,,0.00,Wunderground v.1.15,2013-03-14 00:46:00,
2013-03-13 20:52:00,38.6,22.5,29.98,WSW,257,6.0,17.0,52,0.00,,,0.00,Wunderground v.1.15,2013-03-14 00:52:00,
2013-03-13 20:57:00,38.5,22.4,29.98,WNW,285,4.0,17.0,52,0.00,,,0.00,Wunderground v.1.15,2013-03-14 00:57:00,
2013-03-13 21:03:00,38.3,22.2,29.99,WSW,246,4.0,15.0,52,0.00,,,0.00,Wunderground v.1.15,2013-03-14 01:03:00,
2013-03-13 21:09:00,38.2,21.6,29.99,West,280,5.0,15.0,51,0.00,,,0.00,Wunderground v.1.15,2013-03-14 01:09:00,
2013-03-13 21:14:00,38.0,21.5,29.99,WNW,284,5.0,15.0,51,0.00,,,0.00,Wunderground v.1.15,2013-03-14 01:14:00,
2013-03-13 21:19:00,38.0,21.5,29.99,WNW,287,6.0,15.0,51,0.00,,,0.00,Wunderground v.1.15,2013-03-14 01:19:00,
2013-03-13 21:24:00,37.9,21.4,29.99,WNW,299,5.0,15.0,51,0.00,,,0.00,Wunderground v.1.15,2013-03-14 01:24:00,
2013-03-13 21:30:00,37.8,21.3,30.00,West,265,3.0,15.0,51,0.00,,,0.00,Wunderground v.1.15,2013-03-14 01:30:00,
2013-03-13 21:35:00,37.6,21.1,30.00,WNW,287,4.0,15.0,51,0.00,,,0.00,Wunderground v.1.15,2013-03-14 01:35:00,
2013-03-13 21:40:00,37.5,19.1,30.00,West,270,7.0,15.0,47,0.00,,,0.00,Wunderground v.1.15,2013-03-14 01:40:00,
2013-03-13 21:47:00,37.3,18.9,30.01,NW,306,8.0,15.0,47,0.00,,,0.00,Wunderground v.1.15,2013-03-14 01:47:00,
2013-03-13 21:52:00,37.2,18.3,30.01,North,0,8.0,17.0,46,0.00,,,0.00,Wunderground v.1.15,2013-03-14 01:52:00,
2013-03-13 21:58:00,37.2,18.3,30.01,WNW,302,8.0,17.0,46,0.00,,,0.00,Wunderground v.1.15,2013-03-14 01:58:00,
2013-03-13 22:03:00,37.0,17.6,30.01,WNW,294,9.0,18.0,45,0.00,,,0.00,Wunderground v.1.15,2013-03-14 02:03:00,
2013-03-13 22:09:00,36.9,17.5,30.01,NW,318,9.0,18.0,45,0.00,,,0.00,Wunderground v.1.15,2013-03-14 02:09:00,
2013-03-13 22:15:00,36.8,17.4,30.02,West,277,6.0,18.0,45,0.00,,,0.00,Wunderground v.1.15,2013-03-14 02:15:00,
2013-03-13 22:21:00,36.6,17.7,30.02,WSW,258,5.0,18.0,46,0.00,,,0.00,Wunderground v.1.15,2013-03-14 02:21:00,
2013-03-13 22:27:00,36.5,17.7,30.02,NW,319,8.0,18.0,46,0.00,,,0.00,Wunderground v.1.15,2013-03-14 02:27:00,
2013-03-13 22:32:00,36.3,18.0,30.02,WNW,302,7.0,18.0,47,0.00,,,0.00,Wunderground v.1.15,2013-03-14 02:32:00,
2013-03-13 22:37:00,36.2,17.9,30.02,WNW,287,5.0,18.0,47,0.00,,,0.00,Wunderground v.1.15,2013-03-14 02:37:00,
2013-03-13 22:42:00,36.0,17.7,30.02,NW,313,6.0,18.0,47,0.00,,,0.00,Wunderground v.1.15,2013-03-14 02:42:00,
2013-03-13 22:48:00,35.9,18.1,30.02,NW,308,5.0,5.0,48,0.00,,,0.00,Wunderground v.1.15,2013-03-14 02:48:00,
2013-03-13 22:54:00,35.9,18.1,30.02,WNW,301,3.0,22.0,48,0.00,,,0.00,Wunderground v.1.15,2013-03-14 02:54:00,
2013-03-13 22:59:00,35.8,18.5,30.02,WNW,299,4.0,22.0,49,0.00,,,0.00,Wunderground v.1.15,2013-03-14 02:59:00,
2013-03-13 23:05:00,35.6,18.3,30.02,WNW,299,7.0,15.0,49,0.00,,,0.00,Wunderground v.1.15,2013-03-14 03:05:00,
2013-03-13 23:11:00,35.5,18.2,30.02,NW,304,8.0,14.0,49,0.00,,,0.00,Wunderground v.1.15,2013-03-14 03:11:00,
2013-03-13 23:17:00,35.3,18.5,30.03,NW,326,5.0,14.0,50,0.00,,,0.00,Wunderground v.1.15,2013-03-14 03:17:00,
2013-03-13 23:23:00,35.2,18.9,30.03,WNW,289,5.0,14.0,51,0.00,,,0.00,Wunderground v.1.15,2013-03-14 03:23:00,
2013-03-13 23:28:00,35.0,18.7,30.03,WNW,301,5.0,14.0,51,0.00,,,0.00,Wunderground v.1.15,2013-03-14 03:28:00,
2013-03-13 23:34:00,34.9,19.0,30.03,NW,304,7.0,14.0,52,0.00,,,0.00,Wunderground v.1.15,2013-03-14 03:34:00,
2013-03-13 23:39:00,34.7,19.3,30.03,NW,304,8.0,14.0,53,0.00,,,0.00,Wunderground v.1.15,2013-03-14 03:39:00,
2013-03-13 23:45:00,34.6,19.2,30.03,WSW,247,6.0,14.0,53,0.00,,,0.00,Wunderground v.1.15,2013-03-14 03:45:00,
2013-03-13 23:51:00,34.4,19.0,30.03,South,189,3.0,9.0,53,0.00,,,0.00,Wunderground v.1.15,2013-03-14 03:51:00,
2013-03-13 23:56:00,34.3,18.9,30.03,NW,304,3.0,14.0,53,0.00,,,0.00,Wunderground v.1.15,2013-03-14 03:56:00,